Location: East Guldeford
(50.9500°N, 0.7500°E)
Time: 18:36:15
(UTC+00:00)

Meteor 1-18 Rocket - Pass Details

Date: 12 May 2021
Orbit: 836 x 909 km, 81.2° (Epoch: 16 June)

Event Time Altitude Azimuth Distance (km) Brightness Sun altitude
Exits shadow 23:10:40 34° 199° (SSW) 1,380 4.8 -20.0°
Maximum altitude 23:13:15 81° 282° (WNW) 865 4.2 -20.1°
Drops below altitude 10° 23:18:52 10° 11° (N) 2,471 7.7 -20.3°
Sets 23:21:17 0° 13° (NNE) 3,406 8.6 -20.3°
